Volver al catálogo

OOV-CUBE

ActivoRadioaficionadoVLEO
NORAD 60240·PAYLOAD·🇩🇪 Germany

Lanzado Jul 9, 2024 desde Guiana Space Centre

Loading…

Próximos Pases (próximas 24 horas)

TLE

ActualizadoSource: Space-Track

Época: Sep 13, 2026, 13:01 UTC

1 60240U 24128F   26256.54282977  .00001228  00000-0  10524-3 0  9992
2 60240  61.9931 277.4049 0032208 154.2894 205.9807 15.03092161119396

Sigue OOV-CUBE en tiempo real con AllMySat

Download on the App Store